Location: Mountain Grove
(34.0887°N, 86.6172°W)
Time: 00:05:36
(UTC+00:00)

Cosmos 2016 Rocket - Pass Details

Date: 14 July 2020
Orbit: 948 x 999 km, 83.0° (Epoch: 12 August)

Event Time Altitude Azimuth Distance (km) Brightness Sun altitude
Exits shadow 07:07:36 58° 85° (E) 1,108 4.3 -31.5°
Drops below altitude 10° 07:13:29 10° 15° (NNE) 2,712 7.2 -31.1°
Sets 07:16:03 0° 11° (NNE) 3,670 8.1 -30.9°
